User: anonymous   Login
Location: Bear Valley Community Church - Hurst
(32.8460°N, 97.1828°W)
Time: 17:25:56
(UTC+00:00)
Language:

FALCON 9 DEB - Orbit

View from above orbital plane
View from above orbital plane
View from above satellite
View from above satellite

Ground track
Ground track

The orbit data is extracted from the following two-line orbital elements,

1 49774U 21115BC  22278.52031207  .00060402  00000-0  75791-3 0  9996
2 49774  53.2131 290.7689 0007911 146.8272 213.3240 15.59144682 47716
Epoch (UTC): 05 October 2022 12:29:14
Eccentricity: 0.0007911
inclination: 53.2131°
perigee height: 385 km
apogee height: 395 km
right ascension of ascending node: 290.7689°
argument of perigee: 146.8272°
revolutions per day: 15.59144682
mean anomaly at epoch: 213.3240°
orbit number at epoch: 4771

The dashed part of the orbit path shows where the satellite is in the earth's shadow,  

DLR